Location: Franzen
(48.6167°N, 15.3833°E)
Time: 20:33:22
(UTC+00:00)

Cosmos 1709 Rocket - Pass Details

Date: 31 July 2021
Orbit: 947 x 1002 km, 82.9° (Epoch: 22 September)

Event Time Altitude Azimuth Distance (km) Brightness Sun altitude
Exits shadow 00:25:14 27° 243° (WSW) 1,820 5.0 -20.8°
Maximum altitude 00:27:56 38° 289° (WNW) 1,471 4.9 -20.6°
Drops below altitude 10° 00:33:52 10° 357° (N) 2,786 7.3 -20.3°
Sets 00:36:38 0° 5° (N) 3,741 8.4 -20.1°
